Location: LDNL
(36.4545°S, 141.6685°E)
Time: 03:30:54
(UTC+11:00)

Vanguard 2 - Pass Details

Date: 13 August 2022
Orbit: 552 x 2934 km, 32.9° (Epoch: 06 October)

Event Time Altitude Azimuth Distance (km) Brightness Sun altitude
Rises 17:16:41 0° 298° (WNW) 6,784 15.0 7.0°
Reaches altitude 10° 17:21:21 10° 300° (WNW) 5,734 14.6 6.1°
Maximum altitude 17:38:20 64° 16° (NNE) 2,599 10.3 2.9°
Drops below altitude 10° 17:49:56 10° 94° (E) 4,080 10.6 0.7°
Sets 17:52:39 0° 97° (E) 4,796 10.9 0.2°
